Flag for U.S.A. Weather past 2 weeks in Beaumont, Texas, U.S.A.

Now
78 °F

Clear.


Feels Like: 81 °F
Forecast: 78 / 99 °F
Wind: No wind

Location: Jefferson County Airport

Current Time: Jul 30, 2015 at 4:04:16 AM

Latest Report: Jul 30, 2015 at 2:53 AM


Visibility: 10 mi

Pressure: 30.00 "Hg

Humidity: 93%

Dew point: 76 °F

Location of BeaumontLocation

Historic Weather in Beaumont — Graph

°F

Beaumont temperature yesterday

Maximum temperature yesterday: 99 °F (at 1:53 PM)
Minimum temperature yesterday: 77 °F (at 4:53 AM)
Average temperature yesterday: 86 °F

Past Weeks' High & Low Weather Summary

 TemperatureHumidityPressure
High99 °F (Jul 29, 1:53 PM)100% (Jul 15, 5:53 AM)30.07 "Hg (Jul 15, 5:53 AM)
Low72 °F (Jul 15, 6:53 AM)37% (Jul 29, 1:53 PM)29.87 "Hg (Jul 21, 6:53 PM)
Average85 °F77%29.96 "Hg
* Reported Jul 15 2:53 AM — Jul 30 2:53 AM, Beaumont, Weather by CustomWeather, © 2015

Note: Actual official high and low records may vary slightly from our data, if they occured in-between our weather recording intervals... More about our weather records

Advertising

Beaumont weather history for previous 24 hours

 ConditionsComfort  
Time TempWeatherWind HumidityBarometerVisibility
2:53 AM
Thu, Jul 30
78 °FClear.No wind93%30.00 "Hg10 mi
1:53 AM80 °FClear.5 mph90%30.01 "Hg10 mi
12:53 AM80 °FPassing clouds.3 mph87%30.02 "Hg10 mi
11:53 PM
Wed, Jul 29
80 °FClear.3 mph87%30.02 "Hg10 mi
10:53 PM81 °FClear.5 mph85%30.02 "Hg10 mi
9:53 PM81 °FClear.5 mph82%30.00 "Hg10 mi
8:53 PM83 °FSunny.5 mph72%29.98 "Hg10 mi
7:53 PM87 °FSunny.8 mph59%29.97 "Hg10 mi
6:53 PM91 °FSunny.10 mph57%29.96 "Hg10 mi
5:53 PM95 °FSunny.9 mph52%29.96 "Hg10 mi
4:53 PM94 °FScattered clouds.7 mph51%29.96 "Hg10 mi
3:53 PM99 °FScattered clouds.5 mph37%29.98 "Hg10 mi
2:53 PM99 °FPassing clouds.5 mph37%30.00 "Hg10 mi
1:53 PM99 °FSunny.7 mph37%30.02 "Hg10 mi
12:53 PM95 °FPassing clouds.No wind41%30.03 "Hg10 mi
11:53 AM94 °FSunny.5 mph48%30.04 "Hg10 mi
10:53 AM92 °FSunny.7 mph52%30.05 "Hg10 mi
9:53 AM89 °FSunny.8 mph63%30.04 "Hg10 mi
8:53 AM86 °FSunny.5 mph80%30.05 "Hg10 mi
7:53 AM82 °FPassing clouds.3 mph91%30.03 "Hg9 mi
6:53 AM77 °FClear.5 mph96%30.02 "Hg8 mi
5:53 AM77 °FClear.No wind94%30.00 "Hg10 mi
4:53 AM77 °FClear.No wind96%29.98 "Hg10 mi
Weather by CustomWeather, © 2015

See weather overviewHow to use our weather pages